Torna al catalogo

STARLINK-3549

AttivoComunicazioniVLEO
NORAD 51891·PAYLOAD·🇺🇸 United States

Lanciato Mar 3, 2022 da Cape Canaveral Space Force Station

Loading…

Prossimi Passaggi (prossime 24 ore)

TLE

AggiornatoSource: CelesTrak SupGP

Epoca: Sep 14, 2026, 21:40 UTC

1 51891C 22022AR  26257.90326389  .00011424  00000+0  33756-3 0  2579
2 51891  53.1572 213.5344 0001326  96.7270 197.2012 15.34382862    19

Traccia STARLINK-3549 in tempo reale con AllMySat

Download on the App Store